Location: Miami, Florida
(25.6830°N, 80.1700°W)
Time: 10:09:37
(UTC-04:00)

ISS - Pass Details

Date: 18 November 2017
Orbit: 402 x 407 km, 51.6° (Epoch: 21 November)

Event Time Altitude Azimuth Distance (km) Brightness Sun altitude
Exits shadow 06:42:02 11° 341° (NNW) 1,404 -1.4 -13.4°
Maximum altitude 06:44:51 31° 45° (NE) 730 -2.3 -12.8°
Drops below altitude 10° 06:47:46 10° 110° (ESE) 1,443 0.5 -12.2°
Sets 06:49:59 0° 121° (ESE) 2,300 1.7 -11.7°
